RH
25 23 21 20 18 16 15 14 14 13 12 11 11 10 10 9 8 8 7 7 6 6 6 6 5 5 5 4 4 4 4 4 3 3 3 3 2 2 2 2 2 2 2 2 2 2 2 2 2 2 2 2 2 3 3 4 4 5 6 8 11 14 18 22 26 30 34 36 38 39 40 40 39 38 37 36 34 34 32 31 30 28 27 26 25 24
22 20 18 17 16 14 14 13 12 12 11 10 10 9 8 8 7 7 6 6 6 6 5 5 5 5 4 4 4 4 3 3 3 2 2 2 2 2 2 2 2 2 2 2 2 2 2 2 2 2 3 3 4 5 6 7 9 12 15 18 23 28 32 36 40 42 44 44 44 43 42 40 38 36 34 32 31 30 29 28 28 27 26 26 26 25
19 18 16 15 14 13 12 12 11 11 10 10 8 8 8 7 6 6 6 6 6 5 5 5 4 4 4 4 3 3 3 2 2 2 2 2 2 2 2 2 2 2 2 2 2 3 3 4 4 5 6 7 8 10 13 16 19 23 27 32 36 40 43 45 46 47 46 45 43 41 38 36 34 32 31 30 30 29 29 29 29 29 29 29 29 30
16 15 14 14 13 12 12 11 10 10 9 8 8 7 7 6 6 6 6 5 5 5 4 4 4 4 3 3 3 2 2 2 2 2 2 2 2 2 2 2 2 3 3 4 4 5 6 7 8 10 12 14 17 20 24 28 32 35 39 42 44 46 47 47 47 46 44 42 40 38 36 34 33 32 32 31 31 31 32 32 32 33 34 34 34 35
15 14 13 13 12 11 10 10 10 9 8 8 7 6 6 6 6 6 5 5 4 4 4 4 3 3 2 2 2 2 2 2 2 2 2 2 2 3 3 4 5 6 6 8 8 10 12 14 16 19 22 26 29 32 36 39 41 43 44 45 46 46 46 46 45 43 42 40 39 37 36 35 35 34 34 34 35 35 36 36 36 37 38 38 39 39
14 13 12 12 11 10 10 9 8 8 8 7 6 6 6 6 5 5 5 4 4 4 3 3 2 2 2 2 2 2 2 2 2 3 3 4 4 5 6 8 9 10 12 14 16 18 21 24 27 30 34 37 39 42 43 44 45 45 45 45 46 46 46 45 44 43 41 40 39 38 38 38 38 38 39 39 39 40 40 40 40 41 42 42 42 42
13 12 12 11 10 10 9 8 8 8 7 7 6 6 6 5 5 4 4 4 3 3 2 2 2 2 2 2 2 2 3 3 4 4 5 7 8 10 12 14 16 18 20 22 25 28 32 35 38 40 42 44 45 46 46 45 45 44 45 46 46 46 46 46 44 43 42 40 40 40 40 41 42 42 43 43 44 44 44 45 45 45 46 46 46 46
12 11 11 10 10 9 8 8 8 7 7 6 6 6 5 5 4 4 4 3 2 2 2 2 2 2 2 3 3 4 4 5 7 8 10 13 15 18 20 22 24 26 29 32 35 38 41 43 45 46 47 47 47 46 45 44 44 44 45 47 48 48 48 46 44 43 42 42 42 42 42 43 44 44 45 46 47 48 48 49 50 50 50 50 50 50
12 11 10 9 9 8 8 8 7 7 6 6 6 5 5 4 4 3 3 2 2 2 2 2 2 3 4 4 5 6 8 10 12 15 18 21 24 26 28 31 33 35 38 40 43 45 46 48 48 48 48 48 47 46 44 44 44 45 47 49 50 50 48 46 44 43 42 42 42 42 43 44 44 45 46 48 49 50 50 51 52 52 53 53 53 53
11 10 10 9 8 8 8 7 7 6 6 5 5 4 4 3 3 2 2 2 2 2 2 3 4 5 6 7 9 11 14 17 20 24 28 30 32 34 35 37 39 41 43 45 47 48 49 50 49 49 48 48 46 45 44 44 45 47 50 51 51 50 49 46 45 44 44 43 43 43 43 44 45 46 47 48 49 50 50 51 51 52 52 52 51 51
10 10 9 8 8 8 7 7 6 6 5 5 4 4 3 2 2 2 2 2 2 3 4 5 6 8 9 11 14 18 22 26 29 32 36 38 39 40 40 40 42 44 46 47 49 50 50 50 50 49 48 47 46 45 45 45 47 49 52 53 52 51 49 48 46 46 45 44 44 44 44 44 45 46 46 47 48 48 48 48 47 46 45 44 42 41
10 9 8 8 8 7 7 6 6 5 4 4 3 3 2 2 2 2 2 3 4 5 6 8 10 12 16 18 22 26 30 33 35 38 41 43 44 44 43 43 44 46 47 49 50 52 52 51 50 50 49 48 47 46 46 46 48 50 53 54 53 52 50 49 48 48 47 46 45 45 45 45 45 45 46 46 45 44 43 41 38 36 33 31 30 28
8 8 8 7 7 6 6 6 5 4 4 3 2 2 2 2 2 3 4 5 7 8 10 11 13 17 22 28 31 34 36 37 39 40 43 46 47 47 45 45 46 48 50 52 54 54 54 52 52 50 50 49 48 47 47 48 50 52 54 54 53 52 50 50 50 49 48 47 46 46 45 45 45 45 44 43 42 38 35 31 27 24 22 20 19 18
8 8 7 7 6 6 5 4 4 3 2 2 2 2 2 3 4 6 7 8 10 12 14 16 18 23 29 35 39 40 40 40 40 42 44 47 48 48 46 46 47 50 52 55 56 57 56 54 53 52 52 51 50 49 48 49 50 52 54 53 52 51 51 51 51 50 49 48 47 47 46 46 46 44 42 39 34 29 25 22 19 18 16 15 15 15
8 7 6 6 6 5 4 3 3 2 2 2 3 4 4 6 8 10 12 14 15 16 18 20 23 28 34 41 44 45 43 42 42 42 44 48 50 49 47 46 48 51 54 56 58 58 57 56 55 54 54 53 52 50 50 50 51 52 52 52 51 51 52 52 52 52 51 50 49 48 48 47 45 42 37 31 26 21 19 18 16 15 15 15 16 17
7 6 6 5 4 4 3 2 2 2 2 4 5 7 8 10 13 16 18 19 20 22 23 24 27 32 38 45 49 49 46 44 43 43 45 48 50 50 48 47 48 51 54 56 58 58 57 56 56 56 55 54 53 51 50 51 51 51 50 50 50 51 52 53 54 54 53 52 51 50 50 46 42 35 28 23 20 18 18 17 16 16 16 18 21 24
6 6 5 4 3 3 2 2 3 4 5 7 9 12 14 17 20 22 24 25 26 27 28 30 32 34 38 46 50 51 48 46 44 44 46 49 50 49 47 46 47 50 52 54 55 56 56 56 56 55 54 54 52 51 50 50 49 48 48 48 48 50 52 53 54 55 55 54 54 52 49 42 34 27 22 20 19 19 18 18 18 19 21 24 29 34
5 4 4 3 2 2 2 4 5 7 10 12 15 18 21 24 26 29 30 32 32 33 34 35 36 38 40 45 48 50 49 46 45 45 46 48 49 48 45 44 44 46 47 49 50 50 51 52 52 52 51 50 49 48 48 47 46 45 44 44 46 48 50 53 55 57 58 57 55 50 42 34 27 22 21 20 20 20 20 20 21 23 26 31 37 43
4 3 2 2 2 3 5 8 10 13 16 18 21 24 26 28 31 33 35 36 37 37 38 39 40 42 44 46 48 48 46 44 44 44 45 46 46 44 42 40 40 40 40 42 42 44 44 45 46 46 46 45 45 44 44 43 42 40 40 40 42 44 48 52 56 58 60 58 52 44 34 27 23 22 22 22 22 22 22 24 25 28 31 37 43 50
3 2 2 3 4 6 9 13 16 20 22 24 26 27 29 30 32 33 34 35 36 36 37 39 40 42 44 44 45 44 42 40 40 40 41 42 41 39 36 35 34 34 34 34 35 36 38 38 39 39 40 40 40 40 39 38 37 36 35 36 38 40 45 51 56 60 61 56 47 36 27 24 23 23 24 24 24 25 26 27 29 31 34 39 44 49
2 3 4 6 9 12 15 18 22 24 26 26 26 27 27 27 28 29 30 30 30 30 31 33 35 36 37 38 38 37 35 33 32 33 34 34 34 32 30 29 28 28 27 27 28 30 31 32 32 34 34 35 35 35 34 33 32 31 30 31 33 36 42 50 57 60 60 50 40 30 25 24 24 25 26 27 28 29 30 32 33 34 36 38 41 43
4 6 8 12 15 18 20 22 23 24 25 24 23 22 22 22 22 22 22 22 22 22 23 24 26 28 28 29 29 28 26 24 24 24 24 26 26 24 24 24 23 22 22 22 22 24 24 26 26 28 29 30 30 30 29 28 27 26 26 26 29 34 41 50 58 60 55 43 34 27 25 25 26 27 28 30 32 34 35 36 37 38 39 40 41 42
8 10 13 16 19 20 21 21 21 21 20 19 18 16 15 15 15 15 15 14 15 15 15 16 18 20 21 21 21 20 18 16 16 16 16 18 18 18 18 18 18 17 17 16 17 18 19 20 21 22 24 24 25 24 24 23 22 22 21 22 26 32 41 52 58 57 49 37 30 26 26 26 28 29 31 33 35 37 39 40 42 43 44 45 46 48
12 15 18 19 20 19 18 18 16 15 14 13 12 11 10 10 10 10 10 10 10 10 11 12 13 15 16 16 16 16 14 12 11 10 11 12 12 13 13 13 13 13 13 13 14 14 14 15 16 18 18 19 20 20 19 18 18 17 17 19 24 32 42 53 56 53 42 32 28 26 27 28 30 32 34 36 38 40 42 43 44 46 47 49 51 54
16 18 18 18 16 15 14 12 11 10 10 9 8 8 8 8 8 8 8 9 9 9 9 10 12 13 14 14 15 15 14 11 10 8 8 9 10 10 10 10 10 11 11 11 12 12 12 12 12 14 14 15 15 15 14 14 14 14 14 17 24 33 46 54 54 47 36 30 28 28 29 30 32 34 36 39 41 42 44 44 45 46 47 50 52 56
17 16 15 14 12 11 10 9 8 8 8 8 7 7 7 7 7 7 8 8 9 9 10 11 12 13 14 16 16 16 15 12 10 9 8 9 10 10 10 10 10 10 10 10 10 10 10 10 10 10 11 11 11 11 11 10 10 11 12 17 26 36 50 54 50 41 32 29 28 29 31 32 35 37 39 42 44 45 46 46 46 47 48 50 52 56
15 13 11 10 9 8 8 8 8 8 8 8 7 7 7 7 7 7 8 9 10 10 11 12 13 14 16 18 19 20 18 15 13 11 10 10 11 12 11 10 10 10 10 10 10 10 9 8 8 8 8 9 9 8 8 8 8 10 12 18 29 41 53 52 45 36 30 29 30 31 32 34 37 39 42 44 46 47 47 48 49 50 51 54 56 58
11 10 9 8 8 8 8 8 8 8 8 8 8 8 8 7 8 8 10 10 10 11 13 14 15 16 18 21 23 24 22 19 16 13 12 12 13 13 12 12 11 11 10 10 10 10 10 8 8 8 7 7 7 7 7 6 7 9 13 22 35 47 54 49 41 33 29 30 31 32 34 36 38 40 43 44 46 47 48 49 51 53 55 57 59 60
9 9 8 9 9 9 9 9 9 9 8 8 9 9 9 8 9 10 10 10 11 13 16 17 18 20 22 24 26 27 27 23 19 16 14 14 14 14 14 13 12 11 10 10 10 11 11 9 8 7 7 6 6 6 6 6 7 10 16 28 42 51 54 45 37 31 29 30 32 33 35 37 39 41 43 44 45 46 47 49 51 54 56 58 58 59
9 9 10 10 10 10 10 10 10 10 10 10 10 10 10 10 10 11 12 13 15 17 20 22 23 24 25 26 28 30 30 26 22 18 16 16 15 14 14 13 12 12 11 10 11 12 12 10 8 7 7 6 6 6 6 6 8 13 21 36 48 54 51 42 34 30 30 31 32 34 36 38 40 42 43 43 44 44 46 49 52 54 55 55 55 55
10 10 10 10 10 10 10 10 10 10 10 10 11 12 12 13 14 16 17 19 21 23 26 27 28 29 30 30 30 31 31 28 24 20 18 16 16 15 14 14 13 12 12 11 11 12 12 12 10 8 7 6 6 6 6 7 10 17 29 44 53 54 47 38 32 30 30 31 32 34 37 39 41 42 42 42 42 44 47 50 53 55 55 53 51 50
11 11 11 11 11 11 11 11 11 11 12 12 14 15 16 18 20 23 25 27 29 30 32 32 33 33 33 32 32 32 31 28 25 21 18 17 16 15 14 14 14 13 12 12 12 12 13 13 12 10 8 7 6 5 5 7 13 22 38 52 56 53 43 35 31 29 30 32 34 36 39 41 42 42 42 42 44 46 50 54 57 58 58 54 50 48
12 12 12 12 12 12 12 12 12 13 14 16 17 19 22 24 28 30 33 35 36 36 36 36 36 35 34 34 33 32 30 28 24 21 19 17 16 16 15 15 14 14 13 13 13 14 14 14 14 12 10 8 6 5 5 8 16 28 45 56 57 50 39 32 30 29 30 32 35 38 42 43 43 43 43 44 47 50 55 60 63 64 63 58 54 50
12 12 12 12 12 13 13 14 14 15 16 18 21 24 26 30 33 36 38 39 40 39 38 38 36 36 34 33 32 30 28 26 24 22 20 18 16 16 16 16 15 15 14 14 14 15 15 15 14 13 12 10 8 6 6 10 19 33 51 58 55 46 35 31 29 30 32 35 38 42 44 45 45 45 46 48 52 57 62 66 69 68 66 62 58 54
13 13 13 14 14 14 14 15 16 17 19 21 24 26 29 32 34 37 38 39 39 38 38 36 35 34 32 30 29 27 26 24 24 22 21 19 18 17 17 17 16 16 15 15 15 16 16 16 16 15 14 14 14 13 12 16 26 39 54 58 52 42 33 30 30 32 34 38 42 45 48 48 48 48 50 53 58 64 69 72 73 71 68 65 61 58
14 15 15 15 15 15 15 16 17 18 20 23 25 27 29 31 33 34 36 36 36 36 35 34 33 32 30 28 26 25 24 24 24 24 23 22 20 19 18 18 18 18 16 16 16 16 16 16 16 16 16 19 22 24 24 28 36 47 58 56 49 39 31 30 31 34 38 42 46 49 50 50 49 50 52 58 64 69 74 75 74 72 68 67 64 62
16 16 16 16 17 17 17 18 19 20 22 24 25 27 28 30 31 32 33 34 34 33 32 32 31 30 28 27 26 25 24 25 26 26 26 25 24 22 21 20 20 19 18 17 16 16 16 16 16 18 21 25 31 36 40 43 50 56 60 55 46 36 30 31 33 37 42 46 50 51 50 50 49 50 55 62 68 73 76 75 74 71 68 67 66 64
18 18 19 19 19 19 20 20 21 22 24 25 26 27 28 29 30 31 32 32 32 32 31 30 30 30 30 30 30 29 29 29 29 29 30 28 27 26 24 22 22 21 20 18 18 17 17 16 16 18 24 32 40 47 53 57 61 62 61 52 43 34 31 33 37 42 46 49 50 50 49 48 49 52 58 65 71 75 76 74 72 70 68 66 66 66
20 21 22 22 22 22 23 23 24 25 26 27 28 28 29 30 31 32 33 33 33 32 32 32 32 34 35 36 36 36 35 34 34 34 33 32 31 29 27 26 24 23 21 20 19 18 18 16 16 18 25 37 49 58 64 66 67 65 61 50 40 34 32 36 40 45 49 50 50 50 48 49 51 56 62 70 74 75 75 74 72 70 68 67 67 68
23 24 24 24 25 26 26 27 28 29 30 30 30 31 31 32 33 34 36 36 36 36 36 36 38 39 42 43 43 42 41 40 39 38 37 36 34 33 31 29 26 24 23 21 20 20 19 18 18 20 26 39 54 66 72 70 68 65 58 48 40 36 36 40 44 48 50 52 52 51 50 52 56 61 68 73 75 75 74 73 71 69 68 66 65 65
25 26 27 27 28 30 31 32 32 33 34 34 34 34 33 34 35 36 38 40 41 42 41 42 43 45 47 49 49 48 46 44 43 42 41 40 38 36 34 32 29 26 24 22 21 20 20 20 20 24 30 42 56 68 74 71 68 63 55 46 40 40 42 46 49 52 55 56 56 56 54 56 61 67 74 74 75 74 74 73 70 68 66 63 60 60
28 29 30 31 32 34 35 36 38 38 38 38 37 36 36 36 37 38 40 43 45 46 46 46 47 49 51 53 53 53 51 50 48 46 44 42 40 38 36 34 31 28 25 23 22 21 21 23 25 30 36 48 60 69 73 71 67 60 50 43 40 42 46 50 54 57 59 60 59 58 58 62 66 71 76 75 75 75 75 73 70 66 64 60 58 59
30 32 32 34 36 37 39 40 42 42 43 42 42 41 40 40 40 42 43 46 48 49 50 50 50 50 52 54 55 55 55 54 52 50 48 45 43 40 38 35 32 29 26 24 22 22 22 27 32 39 46 55 63 69 71 69 64 57 47 42 40 43 48 53 57 60 62 61 61 61 63 65 68 70 73 75 76 76 75 73 69 65 62 60 61 63
32 33 35 37 38 40 42 44 46 47 48 48 47 47 46 46 46 46 48 49 50 52 52 51 51 51 52 52 53 54 56 56 56 54 51 48 45 42 39 36 33 30 27 25 23 22 22 31 40 50 57 62 66 68 68 64 59 52 45 42 42 45 49 54 58 61 63 63 64 65 66 65 66 68 71 74 75 75 74 71 68 66 64 64 66 68
32 34 36 38 40 43 46 48 50 52 53 54 54 54 53 53 52 53 53 54 54 54 54 53 52 52 52 51 51 52 54 55 56 55 53 50 47 43 40 37 34 31 28 26 25 24 26 35 46 57 64 66 68 66 64 58 52 47 43 42 44 47 51 55 58 60 61 63 64 64 64 63 64 66 70 72 73 73 72 71 69 68 67 68 68 69
32 34 36 39 42 45 48 51 54 56 59 60 60 60 60 59 59 58 58 58 58 57 56 55 54 53 52 51 50 50 51 53 54 54 53 50 48 45 42 38 34 32 30 28 28 30 36 45 54 62 66 68 68 65 61 53 48 44 42 43 45 48 52 56 58 59 60 61 62 62 62 63 65 66 68 68 70 71 72 72 71 70 68 68 68 69
32 34 37 40 43 47 50 54 57 60 63 65 66 65 64 63 62 62 62 60 60 58 57 56 56 55 54 52 51 50 50 51 51 51 51 49 47 44 41 38 35 33 32 33 35 40 48 56 61 64 66 66 65 63 58 50 45 42 42 43 46 50 53 56 58 60 60 61 61 62 63 65 66 66 65 65 66 70 73 74 72 70 68 68 68 68
32 34 38 41 45 49 53 57 60 63 66 68 68 68 67 65 64 63 62 61 60 58 57 56 56 55 54 54 53 52 51 51 50 50 48 46 44 41 39 37 36 35 37 41 46 53 60 63 65 65 64 63 62 59 55 50 45 42 42 44 47 50 54 57 59 60 61 61 62 64 66 66 65 63 60 61 64 69 74 75 74 71 69 68 68 68
31 34 38 42 48 52 57 60 64 66 68 68 69 69 69 67 65 64 62 60 59 58 57 56 56 55 54 54 54 54 53 52 51 49 47 44 40 37 35 34 36 40 45 53 60 65 67 66 65 64 61 60 58 55 52 49 46 44 44 46 48 52 54 57 58 60 60 62 66 68 69 67 63 59 56 58 63 68 74 76 75 73 70 68 68 68
31 34 38 44 50 56 61 64 66 67 68 68 68 68 68 67 66 64 63 61 60 59 58 57 56 55 55 55 55 55 54 53 51 48 45 41 37 34 32 34 39 46 56 65 70 72 70 68 66 62 59 57 55 52 50 48 46 46 46 48 50 52 54 55 57 59 61 66 69 71 70 66 61 57 55 58 62 68 74 76 76 74 72 70 68 66
33 36 40 45 52 58 63 66 67 68 67 67 67 66 66 66 65 64 63 62 61 60 59 58 58 57 56 56 56 56 55 53 50 47 42 37 33 31 32 37 45 54 64 71 74 74 74 72 68 64 58 54 52 50 48 46 45 46 48 49 50 51 52 54 56 60 65 70 72 72 69 64 59 57 57 60 64 68 73 76 76 76 74 70 67 64
Wind_Speed
74 75 75 76 77 77 78 79 80 81 83 84 84 85 86 88 89 90 91 93 94 96 98 100 102 104 105 107 108 109 109 110 109 109 108 107 105 104 102 100 98 95 93 90 87 85 82 79 76 73 71 68 65 62 60 57 55 53 52 50 49 48 47 47 47 47 47 47 47 48 48 48 48 48 48 48 48 48 48 49 49 49 49 50 50 50
75 76 77 77 78 79 80 81 82 83 84 86 87 88 88 90 91 92 94 96 98 100 102 104 105 107 108 109 109 109 108 107 106 104 102 101 99 97 94 92 89 87 84 81 78 75 72 69 67 64 61 58 55 53 51 49 48 47 46 45 44 44 44 45 45 45 46 46 46 46 46 45 45 45 44 44 44 44 43 44 44 44 45 45 45 46
76 77 78 79 80 81 82 83 84 85 86 88 89 90 91 92 94 95 97 99 101 103 105 107 108 108 109 108 107 105 104 102 100 97 95 93 91 88 86 83 80 77 74 71 69 66 63 60 57 54 52 49 48 46 45 44 43 43 43 42 43 43 43 44 44 44 43 43 43 42 42 41 41 40 39 39 39 38 39 39 40 40 41 41 42 43
77 79 80 81 82 82 84 85 86 87 89 90 91 92 93 95 97 99 101 103 105 107 108 108 108 107 106 104 102 100 97 94 92 89 87 85 82 79 77 74 71 68 65 62 59 56 54 51 49 47 45 43 42 42 42 41 41 42 42 42 42 42 42 42 41 40 40 39 38 38 37 37 36 36 35 35 35 35 36 36 37 38 39 40 41 42
79 80 82 83 84 85 86 87 88 89 91 92 94 95 97 99 101 103 105 106 107 108 108 107 105 103 101 98 95 92 89 86 83 81 78 76 73 70 67 64 62 59 56 53 51 49 46 44 43 42 41 40 40 41 41 41 41 42 42 41 41 40 39 38 37 36 35 35 35 34 34 34 34 34 34 34 34 35 36 37 37 38 39 40 42 43
81 82 84 85 86 87 88 89 90 92 94 95 97 99 100 102 104 106 107 108 107 106 105 103 100 96 93 90 87 84 80 77 74 72 69 67 64 61 58 56 53 51 49 47 45 43 42 41 40 40 40 40 41 41 41 42 42 41 40 39 38 37 35 34 33 33 32 32 32 32 32 32 33 33 34 35 35 36 37 38 39 40 41 42 43 44
84 84 86 87 88 89 90 92 93 95 97 99 101 103 104 106 107 107 107 106 105 102 99 96 92 88 84 81 78 75 72 68 65 63 60 58 55 53 51 49 47 45 44 42 41 40 40 40 40 40 41 41 42 42 42 41 41 39 38 36 34 33 32 31 31 31 31 31 31 31 32 32 33 34 35 36 37 38 39 40 41 42 43 43 44 45
86 87 88 89 90 91 93 95 97 99 101 103 104 106 107 108 107 106 105 102 99 95 91 88 84 80 75 72 69 66 63 60 57 54 52 50 49 47 46 44 43 42 41 41 40 40 40 41 41 41 41 42 42 41 41 40 39 37 35 33 32 31 30 30 30 30 30 31 31 31 32 33 34 35 36 37 37 38 39 40 41 42 43 44 45 46
88 89 90 91 92 94 96 98 101 103 104 106 107 108 107 107 105 103 100 96 91 87 82 78 75 71 67 63 60 56 54 52 50 48 46 45 44 43 42 42 41 41 41 41 41 41 41 41 41 41 41 41 41 40 39 38 36 34 32 31 30 30 30 30 31 31 31 31 32 33 33 34 35 35 36 37 38 38 39 40 41 42 43 44 45 46
89 90 92 93 95 97 99 102 104 106 108 108 108 108 106 103 100 97 93 88 83 78 73 69 65 62 59 56 52 49 46 45 44 44 43 42 42 42 41 41 41 41 41 41 41 41 41 41 41 41 41 40 40 39 38 36 34 32 31 30 30 30 31 31 31 31 32 32 33 34 34 35 35 36 36 37 37 38 39 40 41 42 43 44 45 46
91 93 94 96 99 101 103 105 107 108 109 108 107 106 103 98 93 88 83 80 76 70 65 60 56 52 50 48 47 45 42 41 41 42 42 42 42 42 41 41 41 41 41 41 41 41 40 40 40 40 40 39 39 38 37 35 33 31 30 30 31 31 31 31 31 32 32 33 34 35 35 35 36 36 36 37 37 38 39 40 41 42 43 44 45 46
94 95 97 100 102 104 106 108 109 109 108 105 102 99 96 92 86 79 74 70 66 61 56 53 49 46 44 42 42 42 41 40 40 40 41 42 42 42 42 41 41 41 41 41 40 40 40 40 39 39 39 39 38 37 36 34 32 31 30 31 31 32 32 32 32 32 33 34 34 35 35 35 36 36 36 37 38 38 39 40 41 42 43 44 45 46
96 98 101 103 105 107 108 108 108 106 104 100 95 90 86 83 78 72 66 61 57 53 48 45 43 42 41 41 41 40 40 40 39 40 41 42 42 42 41 41 40 40 40 40 40 39 39 39 39 39 39 39 38 37 36 34 32 31 31 31 32 32 32 32 32 33 33 34 34 35 35 35 36 36 37 37 38 39 40 41 41 42 43 44 45 45
100 102 104 107 108 109 108 106 104 100 97 93 87 82 78 73 68 63 58 54 50 47 43 40 39 39 40 41 41 41 41 40 40 40 40 41 41 42 41 40 40 39 39 39 39 39 39 39 39 39 39 39 38 37 35 33 32 31 31 32 32 32 32 32 32 33 33 34 34 34 35 35 36 37 37 38 39 39 40 41 42 42 43 43 44 44
103 105 107 109 108 107 105 101 97 93 89 84 79 74 69 64 60 55 51 47 45 43 40 38 37 38 39 41 42 42 42 41 40 39 39 40 41 41 41 40 39 39 38 38 38 39 39 39 39 39 39 39 38 37 35 33 32 31 32 32 33 33 32 32 32 33 33 34 34 35 35 36 36 37 38 38 39 39 40 41 41 42 42 42 41 40
106 108 108 108 106 103 99 94 89 84 80 76 70 65 60 56 53 50 46 44 42 40 39 38 37 38 39 41 42 43 43 42 41 40 39 39 40 41 40 40 39 38 38 38 38 38 39 39 39 39 39 39 38 37 35 34 32 32 32 33 33 33 32 32 33 33 33 34 34 35 35 36 36 37 37 38 38 39 39 40 40 40 40 39 38 36
108 107 106 103 100 96 91 86 81 76 71 66 62 58 54 51 48 46 44 42 41 40 39 39 38 39 40 41 43 44 43 42 41 40 39 39 39 40 40 39 38 38 37 38 38 39 39 39 39 39 39 39 39 37 35 34 33 33 33 33 33 33 33 33 33 33 34 34 35 35 35 36 36 36 36 36 37 37 38 38 38 38 37 36 34 33
107 104 101 97 92 87 82 76 72 67 63 59 55 52 49 47 45 44 43 42 41 41 41 41 40 40 41 42 43 44 44 43 42 40 39 38 38 39 39 39 38 38 37 38 38 39 39 39 39 39 40 39 39 37 36 34 33 33 34 34 33 33 33 33 33 34 34 34 35 35 35 35 34 34 35 35 35 35 35 35 35 34 34 32 31 30
102 98 93 88 83 79 73 68 63 59 56 54 51 48 46 45 44 44 43 43 43 42 42 42 42 42 42 42 43 44 44 43 42 40 38 37 37 38 38 38 38 37 37 38 38 39 39 39 39 40 40 39 39 37 36 35 34 34 34 34 34 33 33 33 33 34 34 34 34 34 34 33 33 33 33 33 33 33 33 33 32 31 31 30 29 29
95 91 85 79 74 69 65 61 57 53 51 50 48 46 45 44 44 44 44 44 44 43 43 43 43 43 43 42 43 43 43 43 41 40 38 37 36 37 37 37 37 37 37 37 38 39 39 39 40 40 40 40 39 37 36 35 35 35 34 34 34 34 33 33 33 34 34 34 33 33 32 32 31 31 31 31 31 31 30 30 29 29 29 28 28 28
87 82 77 71 65 60 57 55 53 51 49 48 47 46 46 45 45 45 45 45 45 44 44 43 43 43 42 42 42 43 43 42 41 39 38 36 35 36 37 37 37 36 36 37 38 39 39 39 40 40 40 40 39 38 37 36 35 35 35 35 34 34 33 33 33 33 33 33 32 31 30 30 30 30 29 29 29 28 28 28 28 27 27 27 27 28
77 72 68 63 58 54 52 51 50 49 48 48 48 47 47 47 46 46 46 46 45 45 44 43 43 42 42 42 42 42 42 42 41 39 37 35 34 35 36 36 36 36 36 36 37 38 39 39 40 40 41 40 40 39 37 37 36 35 35 35 34 34 33 33 33 32 32 31 30 29 29 28 28 28 28 27 27 27 27 27 26 26 26 26 26 26
68 63 60 56 54 51 50 49 49 49 49 49 49 48 48 48 48 47 47 47 46 45 44 43 43 42 42 41 41 41 42 41 41 39 37 35 34 34 35 36 35 35 35 36 37 37 38 39 40 40 41 41 40 39 38 37 36 36 35 34 34 33 33 32 32 31 30 29 29 28 27 27 27 27 26 26 26 26 26 26 26 26 26 26 25 26
61 57 54 52 51 50 50 50 50 50 50 50 50 50 49 49 48 48 48 47 47 46 45 44 43 42 41 40 40 40 41 41 41 39 38 36 34 34 35 35 35 34 34 35 36 36 37 38 39 40 40 40 40 39 37 36 36 35 34 34 33 33 32 32 31 30 29 28 27 26 26 26 26 25 25 25 25 26 26 26 26 26 26 26 26 26
55 53 51 51 50 50 51 51 51 51 51 51 50 50 50 49 49 48 48 48 47 46 45 44 43 41 40 39 39 39 40 41 41 40 38 36 35 34 35 35 35 34 34 34 35 36 36 37 38 39 39 39 39 38 36 35 35 34 34 33 33 32 31 30 29 28 27 26 25 25 25 25 25 25 24 25 25 26 26 26 27 27 27 27 27 27
52 51 51 51 51 51 51 51 51 51 51 51 51 50 50 49 49 48 48 47 47 46 45 44 42 41 39 38 37 37 39 40 40 39 38 36 35 34 34 35 35 34 34 34 34 35 35 36 37 38 38 38 37 36 35 34 33 33 33 32 31 31 30 29 28 27 25 25 24 24 24 24 24 24 24 25 25 25 26 26 27 27 27 27 27 27
51 51 51 51 51 51 51 51 51 51 51 51 51 50 50 49 49 48 47 47 46 45 44 43 42 40 38 36 35 36 38 39 39 39 38 37 35 34 34 34 34 34 33 33 33 34 35 35 36 37 37 37 36 35 34 33 32 32 31 31 30 30 29 28 26 25 24 24 23 23 23 24 24 24 24 25 25 25 26 26 26 27 27 27 27 27
51 51 52 52 51 51 51 51 51 51 51 50 50 50 49 49 48 47 46 46 45 45 43 42 41 39 37 35 34 35 36 38 39 39 38 36 35 34 34 34 34 34 33 32 32 33 34 35 35 36 36 35 34 33 32 32 31 31 30 30 29 28 28 26 25 24 23 23 23 23 23 24 24 24 24 25 25 25 26 26 26 26 27 27 27 27
51 51 51 51 51 50 50 50 50 50 50 49 49 49 49 48 47 46 45 45 44 43 42 41 39 38 36 34 33 34 35 37 38 38 37 36 35 34 34 34 34 33 33 31 31 31 32 34 35 35 34 34 33 32 31 31 30 29 29 28 28 27 26 25 24 24 23 23 23 23 23 24 24 24 24 25 25 25 25 26 26 27 27 27 27 27
50 50 50 50 50 49 49 49 49 48 48 48 48 47 47 46 45 44 44 43 42 41 40 39 38 37 35 34 33 33 34 36 38 38 37 36 35 34 33 33 33 33 33 31 30 29 30 32 34 34 33 33 32 31 31 30 29 28 28 27 27 26 26 25 24 23 23 23 23 23 23 23 24 24 24 24 24 25 25 26 27 27 27 27 27 27
49 49 49 49 48 48 48 47 47 47 46 46 46 45 45 44 43 42 41 40 39 38 38 37 36 36 35 34 34 33 34 35 37 37 36 36 34 33 33 32 32 32 32 32 30 28 28 29 32 33 33 32 31 30 30 29 28 27 27 26 26 25 25 25 24 24 23 23 23 23 23 23 23 24 24 24 24 25 25 27 28 28 28 28 27 27
47 47 47 47 47 46 46 45 45 44 44 43 43 42 41 41 40 39 38 38 37 36 36 35 35 35 35 35 34 34 34 35 36 36 36 35 34 33 32 31 31 31 31 31 30 28 27 27 29 31 32 32 31 30 29 28 27 26 26 25 25 25 25 24 24 24 23 23 22 22 23 23 23 23 23 24 24 25 27 28 29 30 30 30 29 28
46 46 46 45 45 44 44 43 43 42 41 41 40 39 38 37 37 36 35 35 35 35 35 35 35 35 34 34 34 34 34 35 35 35 35 34 33 32 31 31 30 29 29 29 29 28 27 26 26 28 30 31 31 30 29 28 26 25 24 24 24 24 24 24 24 23 23 22 22 22 23 23 23 23 24 24 25 27 28 30 31 32 32 32 31 29
45 45 44 44 43 42 42 41 40 40 39 38 37 36 35 35 34 34 33 33 33 34 34 34 34 34 34 34 33 33 34 34 35 35 35 34 34 32 31 30 30 29 28 27 27 27 26 25 25 26 27 29 30 30 29 28 26 24 23 23 23 23 24 24 23 23 22 21 22 22 23 23 24 24 24 25 27 28 30 31 33 34 34 34 33 32
44 43 43 42 41 41 40 39 38 37 37 36 35 34 33 33 32 32 32 33 33 33 33 34 34 34 34 34 33 33 33 34 34 35 35 35 34 33 32 31 30 29 28 27 26 25 25 24 24 24 25 26 28 29 29 28 26 24 23 22 22 23 23 23 22 22 21 21 22 22 23 24 24 24 25 27 28 30 31 32 34 35 35 35 35 34
42 42 41 41 40 39 38 38 37 36 35 35 34 33 33 32 32 32 32 33 33 33 33 34 34 34 34 34 34 34 33 34 34 35 35 35 35 34 33 32 31 30 29 28 26 25 24 23 23 23 23 24 26 27 28 28 26 24 23 22 22 22 22 21 21 21 21 21 22 22 23 24 24 25 26 27 29 30 32 33 34 35 36 36 35 34
41 41 41 40 39 38 38 37 36 36 35 34 34 33 33 33 33 33 33 33 33 34 34 34 34 34 35 35 35 35 35 34 35 35 35 35 35 34 33 32 31 30 30 28 27 25 23 22 21 21 22 23 24 25 27 27 26 25 23 22 21 21 20 20 20 20 20 21 22 22 23 24 24 25 26 28 29 31 32 33 34 35 36 35 35 33
41 40 40 40 39 38 38 37 36 36 35 35 34 34 34 34 34 34 34 34 34 34 34 34 34 35 35 36 36 36 36 36 36 35 35 35 35 34 33 32 31 30 30 29 27 26 24 22 20 20 21 22 23 24 25 26 26 25 24 22 20 20 20 20 20 20 21 21 22 22 23 23 24 25 27 28 30 31 32 34 34 35 35 34 33 32
41 40 40 40 39 39 38 37 37 36 36 36 35 35 35 35 35 35 35 35 35 35 35 35 35 35 36 37 37 37 37 37 37 36 36 36 35 34 33 32 31 30 29 28 28 26 24 22 20 19 19 20 21 23 24 25 26 25 23 22 20 20 19 20 20 21 21 22 22 22 23 24 25 26 27 29 30 32 33 33 34 34 33 33 32 31
41 40 40 40 40 39 39 38 38 37 37 37 36 36 36 36 35 35 36 36 35 35 35 35 35 35 36 37 37 37 37 37 37 37 36 36 35 34 33 32 31 30 29 28 27 26 24 22 20 19 18 19 20 21 23 24 25 24 23 21 20 19 20 20 21 22 22 22 23 23 24 24 26 27 28 30 31 32 32 32 32 32 32 32 31 31
41 41 40 40 40 40 39 39 39 38 38 38 37 37 37 36 36 36 36 36 36 35 35 35 35 35 35 36 37 37 37 37 37 37 36 36 35 34 33 32 31 30 29 27 26 25 24 22 20 18 17 18 18 19 21 23 24 23 22 20 19 19 20 21 22 23 23 23 24 24 25 26 27 28 29 31 31 32 32 31 31 31 31 32 32 32
41 41 41 41 40 40 40 39 39 39 39 38 38 37 37 36 36 36 35 35 35 35 35 34 34 34 34 34 35 36 37 37 37 37 36 35 35 34 33 32 31 30 28 27 26 24 23 21 19 18 17 17 17 18 19 21 22 22 21 19 18 18 19 21 22 23 24 24 25 25 26 27 28 29 30 31 31 31 30 30 30 31 32 32 33 33
41 41 41 41 40 40 40 39 39 39 38 38 38 37 37 37 36 35 35 35 34 34 34 34 33 33 33 33 33 34 35 36 36 36 36 35 34 33 32 31 30 29 28 27 25 23 21 20 18 17 16 16 16 17 18 19 20 20 20 19 18 18 19 21 22 23 24 24 25 26 27 27 28 29 30 30 30 29 29 30 31 32 33 33 33 34
41 41 41 41 40 40 39 39 38 38 38 38 37 37 37 36 36 35 34 34 34 33 33 33 33 33 32 32 32 32 33 34 35 35 35 35 34 33 32 31 30 29 28 27 25 22 20 18 16 16 16 15 15 16 16 17 18 19 19 19 18 18 19 20 22 23 24 24 25 26 27 28 29 29 29 29 29 28 29 30 31 32 33 33 33 33
41 41 41 40 40 39 39 38 38 37 37 37 36 36 36 35 35 34 34 33 33 33 33 33 32 32 32 32 31 31 31 32 32 33 34 34 33 32 31 30 29 28 27 26 24 22 19 16 15 14 14 14 14 15 15 16 17 18 18 18 18 19 20 21 22 23 23 24 25 26 28 29 29 29 28 28 27 28 28 30 31 32 32 33 32 32
40 40 40 40 39 39 38 38 37 36 36 36 35 35 35 35 34 34 33 33 32 32 32 32 32 32 32 31 31 31 30 30 30 31 31 31 31 31 30 29 28 27 26 25 23 21 18 16 14 13 12 12 13 13 14 15 16 17 17 18 18 19 20 21 22 22 23 24 25 27 28 29 29 28 27 26 26 27 28 30 31 32 32 32 31 30
40 40 40 39 39 39 38 37 37 36 35 35 34 34 34 34 33 33 32 32 32 32 32 32 32 32 31 31 31 30 30 29 29 29 29 29 28 28 28 27 26 26 25 24 22 20 17 15 13 12 11 11 11 12 13 14 15 16 17 17 18 19 20 21 22 22 23 24 26 27 28 28 27 26 25 25 25 26 28 30 31 31 31 30 29 28
41 41 40 40 39 39 38 37 37 36 35 34 34 33 33 33 33 32 32 32 31 31 31 31 31 31 31 31 31 30 30 29 28 28 27 26 26 25 25 24 24 23 23 22 21 19 17 15 13 12 11 10 9 10 12 13 14 15 16 17 18 18 19 20 21 22 24 25 26 27 27 27 26 25 24 24 25 26 27 29 30 30 29 28 27 26
41 41 41 41 40 40 39 38 37 36 35 34 33 32 32 32 32 32 31 31 31 31 30 30 30 30 30 30 30 29 29 29 28 27 26 25 24 23 22 21 21 20 20 20 20 19 17 15 14 12 10 9 9 9 11 12 13 14 15 16 17 17 18 19 21 22 24 25 26 26 26 25 25 24 24 23 24 25 26 27 28 28 28 26 25 24
42 42 42 42 41 40 39 38 37 36 35 34 33 32 32 31 31 31 31 31 30 30 30 30 29 29 29 28 28 28 28 28 27 26 25 23 22 21 19 19 18 18 18 18 18 17 17 16 15 13 11 9 8 9 10 11 12 13 14 15 16 17 18 19 20 22 23 24 24 24 24 24 24 23 23 23 23 23 24 26 26 27 26 25 24 23
43 43 43 43 42 41 40 39 38 36 35 34 33 32 32 31 31 31 30 30 30 30 29 29 29 28 28 27 27 27 27 26 26 24 23 22 20 19 18 17 16 15 15 15 15 15 16 16 16 15 14 10 8 8 9 10 11 12 13 14 15 16 18 19 20 21 22 22 22 23 23 23 23 22 22 22 22 22 23 24 25 25 25 24 23 22
Wind_Direction
304 304 304 303 303 303 303 303 303 303 303 303 302 302 302 302 302 302 302 302 301 301 301 301 300 300 300 299 299 299 298 298 297 296 296 295 294 294 293 292 292 291 291 290 290 290 289 289 289 288 287 286 285 284 283 281 280 279 278 278 277 276 276 275 275 275 274 274 274 273 273 272 271 270 270 269 268 267 266 265 265 264 263 263 262 262
304 304 304 304 304 304 304 304 304 304 303 303 303 303 303 303 302 302 302 302 302 302 302 301 301 301 300 300 299 299 298 297 297 296 295 295 294 293 293 292 292 292 291 291 291 290 290 289 289 288 287 285 284 283 282 281 280 279 278 277 277 276 276 276 276 276 276 276 275 275 274 273 272 270 269 268 267 266 265 264 263 263 262 262 262 261
305 305 304 304 304 304 304 304 304 304 304 304 303 303 303 303 303 303 303 303 303 302 302 302 301 301 300 300 299 298 298 297 296 295 295 294 293 293 293 292 292 292 292 291 291 291 290 289 288 287 286 285 284 282 281 280 279 279 278 278 277 277 278 278 278 278 278 277 276 275 274 273 271 270 268 267 266 265 264 263 262 262 262 262 262 262
305 305 305 305 305 305 305 305 305 304 304 304 304 304 304 304 304 304 303 303 303 303 302 302 302 301 300 300 299 298 297 296 295 295 294 294 293 293 293 293 293 293 292 292 292 291 290 289 288 287 286 285 284 283 281 281 280 280 279 279 279 280 280 280 280 279 278 277 275 274 273 271 270 269 268 267 266 265 264 264 263 263 263 263 263 263
306 305 305 305 305 305 305 305 305 305 305 304 304 304 304 304 304 304 304 304 303 303 302 302 301 301 300 299 298 297 296 295 295 294 294 294 293 293 293 293 293 293 293 293 292 291 290 289 288 287 286 285 284 283 282 282 281 281 281 281 282 282 282 282 280 279 277 275 273 272 271 270 270 270 269 269 269 268 268 267 267 266 266 266 265 265
306 306 306 306 306 306 306 306 306 305 305 305 305 305 305 305 305 305 304 304 304 303 302 302 301 300 299 298 297 296 296 295 294 294 294 294 294 294 294 294 294 294 294 293 292 291 291 290 289 288 287 286 285 284 284 283 283 283 283 283 284 284 283 282 279 277 275 273 272 271 270 271 271 271 271 271 271 271 270 270 269 269 269 268 268 268
307 307 307 307 307 307 306 306 306 306 306 306 305 305 305 305 305 305 304 304 304 303 302 302 301 300 299 297 296 296 295 294 294 294 294 294 295 295 295 295 295 294 294 293 292 292 291 290 289 288 287 286 286 285 285 284 284 284 285 286 286 285 284 281 278 276 274 273 272 271 271 271 271 271 271 271 271 271 270 270 270 270 270 269 269 269
307 307 307 307 307 307 307 307 306 306 306 306 306 306 306 306 305 305 304 304 303 303 302 301 300 299 298 297 296 295 295 295 295 295 295 295 296 296 296 296 295 295 294 293 292 292 291 290 289 289 288 287 286 286 285 285 286 286 287 288 288 286 284 281 279 277 276 275 274 273 272 271 271 270 270 269 269 269 269 269 268 268 268 269 269 269
308 308 308 308 307 307 307 307 307 306 306 306 306 306 306 306 305 305 305 304 303 302 301 300 299 298 297 296 295 295 295 295 295 296 296 296 297 297 296 296 295 294 294 293 293 292 291 290 289 289 288 287 287 286 286 287 287 289 290 291 289 287 285 282 280 279 278 277 276 274 273 272 271 270 269 269 268 267 267 267 266 266 266 267 267 267
308 308 308 308 308 307 307 307 307 307 307 307 307 306 306 306 305 305 304 304 303 302 301 300 299 298 297 296 295 295 295 296 297 297 298 297 297 296 296 295 295 294 294 293 293 292 291 290 290 289 288 288 287 287 287 288 289 291 292 292 290 288 285 283 282 281 280 279 277 276 275 274 273 272 271 270 269 268 267 267 266 266 266 266 266 266
308 308 308 308 308 308 308 307 307 307 307 307 307 306 306 306 305 305 304 303 302 301 300 299 298 297 296 295 295 296 296 297 298 298 299 298 297 296 296 295 295 294 294 293 293 292 291 290 289 289 288 288 288 288 288 289 291 293 294 293 291 288 286 285 284 284 282 281 279 278 277 276 275 274 273 273 272 271 271 270 270 270 269 269 268 268
308 308 308 308 308 308 308 308 308 307 307 307 307 307 306 306 305 304 304 302 301 300 299 299 298 297 296 295 295 295 296 298 298 299 298 298 297 296 296 295 295 295 294 294 293 292 291 290 290 289 288 288 288 289 289 291 292 294 295 293 291 289 288 288 287 286 284 282 281 280 279 279 278 278 278 277 277 277 276 276 275 275 274 274 273 272
309 308 308 308 308 308 308 308 308 308 307 307 307 306 306 305 305 304 303 302 301 300 299 299 298 297 297 296 295 296 297 298 298 298 298 297 296 296 295 295 295 294 294 293 293 292 291 290 290 289 289 289 289 289 290 292 294 295 294 293 291 290 289 289 288 286 285 283 283 282 282 282 282 282 282 282 282 281 280 280 279 279 278 277 276 275
309 309 309 309 309 308 308 308 308 308 307 307 307 306 306 305 304 304 303 302 301 300 300 299 298 297 297 297 296 297 297 298 299 299 298 297 296 295 295 294 294 294 294 293 292 291 291 290 289 289 289 289 289 290 291 292 294 294 293 292 290 289 289 288 287 286 285 284 284 284 285 285 285 285 285 285 284 283 283 282 281 281 280 279 278 276
309 309 309 309 309 309 309 308 308 308 307 307 307 306 306 305 304 304 303 302 301 300 300 299 298 297 297 297 297 297 298 299 299 298 298 296 295 295 294 294 293 293 293 292 291 290 290 289 289 288 288 288 289 289 290 292 293 293 292 290 289 289 288 288 287 286 286 286 286 287 287 288 288 287 287 286 286 285 285 284 284 283 282 281 280 278
310 309 309 309 309 309 309 308 308 308 307 307 307 306 306 305 304 303 303 302 301 300 300 299 298 297 297 296 296 297 298 299 299 298 297 296 295 294 293 293 293 292 291 290 290 289 288 288 288 288 287 288 288 288 290 291 291 291 289 288 288 288 288 288 287 287 287 288 288 289 289 289 289 288 288 287 287 287 287 287 287 286 286 284 282 279
310 310 310 309 309 309 309 309 308 308 307 307 307 306 306 305 304 303 303 302 301 300 300 299 297 296 296 296 296 296 297 298 298 298 297 295 294 293 293 292 291 291 290 289 288 288 287 287 287 287 286 286 287 288 289 289 289 289 287 287 287 287 287 287 288 288 288 289 289 289 289 289 289 288 288 289 289 290 290 291 291 290 289 287 284 281
310 310 310 310 309 309 309 309 308 308 308 307 307 306 306 305 304 303 303 302 301 301 300 299 298 297 296 295 295 295 296 297 297 297 296 294 293 292 291 291 290 290 289 287 287 286 286 286 285 285 285 285 286 286 287 288 287 286 286 286 286 286 287 287 287 288 288 289 289 289 289 289 289 289 290 291 292 293 293 294 294 293 291 289 286 283
310 310 310 310 310 310 309 309 308 308 307 307 307 306 305 305 304 303 303 302 301 301 300 299 298 297 297 296 295 295 295 296 295 295 294 293 292 291 290 289 289 288 287 286 286 285 285 284 284 284 284 284 285 285 286 286 286 285 285 285 285 285 286 286 287 288 288 289 289 289 288 288 289 290 292 293 294 296 297 297 297 296 294 291 289 285
311 310 310 310 310 310 309 309 308 308 307 307 307 306 305 304 303 303 302 302 301 300 300 299 298 297 296 295 295 294 294 294 294 293 292 291 290 289 289 288 287 287 286 286 285 284 284 284 284 283 283 284 284 284 285 285 284 284 284 283 284 284 285 285 286 287 288 288 288 288 288 289 290 291 293 295 297 299 300 300 299 298 296 293 291 288
311 310 310 310 310 310 309 309 308 308 307 307 306 306 305 304 303 302 302 301 300 300 299 299 298 297 296 295 295 294 293 293 293 292 291 290 290 289 288 287 287 287 286 285 285 284 284 284 283 283 283 283 284 284 284 284 284 283 283 282 283 283 283 284 285 286 287 287 287 287 287 288 290 292 294 296 299 300 301 301 300 299 297 295 292 290
311 311 310 310 310 310 310 309 308 308 307 307 306 306 305 304 303 302 301 301 300 300 299 298 298 297 296 296 295 294 294 293 293 292 291 290 290 290 289 288 287 287 287 286 285 284 283 283 283 283 283 283 283 283 283 283 283 282 282 281 281 281 282 283 284 285 286 285 285 285 286 288 290 292 295 297 299 300 300 299 299 297 296 294 293 291
311 311 311 311 311 310 310 309 308 308 307 307 306 305 305 304 303 302 301 301 300 300 299 299 298 298 298 297 297 296 295 294 294 293 292 291 291 291 289 288 288 287 287 286 285 284 283 283 283 282 282 282 282 282 283 282 282 281 280 280 279 279 280 281 283 283 283 283 283 284 286 288 290 292 294 295 297 297 297 296 295 294 293 292 291 291
311 311 311 311 311 310 310 309 308 308 307 306 306 305 304 304 303 302 302 301 301 300 300 300 299 299 299 299 298 297 296 295 295 294 293 293 293 292 291 290 289 288 288 287 285 284 283 283 282 281 281 281 281 282 282 281 281 280 279 278 277 278 279 280 281 281 281 281 281 283 285 287 289 290 292 293 294 294 293 293 292 291 290 289 288 288
312 312 312 311 311 311 310 309 309 308 307 306 306 305 304 304 303 303 302 302 301 301 301 301 301 301 300 300 299 298 297 296 295 295 295 294 294 294 293 291 290 290 289 288 287 285 284 283 282 281 280 280 281 281 281 280 279 278 277 276 275 276 277 278 279 278 278 278 279 281 283 285 287 288 290 291 291 291 290 289 288 287 286 285 285 285
313 313 312 312 312 311 311 310 309 308 308 307 306 305 305 304 304 303 303 303 302 302 302 302 301 301 301 300 299 298 297 296 295 295 295 295 295 294 294 293 292 291 291 290 289 287 286 284 283 281 281 281 281 281 280 279 278 276 275 274 273 274 275 276 276 275 275 275 277 279 281 283 285 286 287 288 288 288 288 287 286 285 284 283 283 283
314 313 313 313 312 312 311 311 310 309 309 308 307 306 306 305 305 304 304 303 303 302 302 302 301 301 300 300 299 298 297 296 295 294 294 295 296 296 295 294 293 292 292 291 290 289 287 285 284 282 282 281 281 281 280 278 276 274 272 272 272 272 273 273 273 272 272 273 275 277 279 281 282 284 285 286 287 287 287 286 285 284 284 283 284 284
314 314 314 314 313 313 312 312 311 310 310 309 308 308 307 306 306 305 304 303 303 302 302 302 301 301 300 300 300 299 298 296 295 294 294 295 296 297 296 294 293 292 292 291 291 290 288 286 284 283 282 282 282 281 279 277 275 272 271 270 270 271 271 270 269 268 269 270 272 275 277 279 281 283 285 286 287 287 287 286 286 286 285 286 287 287
315 315 315 315 314 314 314 313 313 312 311 310 310 309 308 307 307 306 305 304 303 303 302 302 301 301 301 300 300 300 299 297 296 295 294 296 296 297 296 295 294 293 292 291 291 290 289 287 285 284 283 282 281 280 278 276 273 271 269 269 269 269 268 267 266 265 266 268 271 273 276 278 281 283 285 287 288 288 288 288 288 288 289 289 290 291
316 316 316 316 316 315 315 315 314 313 313 312 311 310 309 308 307 306 305 305 304 303 303 303 303 302 302 301 301 301 300 298 297 296 296 296 297 297 296 296 296 295 293 292 291 291 290 288 286 284 283 282 280 278 276 274 271 269 268 267 267 266 265 264 263 264 265 267 270 273 276 279 282 284 286 288 289 289 290 291 291 292 292 292 292 293
317 317 317 317 317 317 316 316 316 315 314 313 312 311 310 309 308 307 306 306 305 305 305 304 304 304 304 304 303 303 301 300 298 297 297 297 298 298 298 298 297 296 295 294 293 292 290 289 287 285 283 282 279 277 275 272 270 268 266 266 265 264 263 262 262 263 265 268 271 275 278 281 283 286 288 289 291 292 293 294 294 295 295 294 293 293
317 317 317 318 318 318 318 318 317 317 316 315 314 313 312 311 310 309 308 307 307 307 307 307 306 306 306 306 306 305 303 302 300 299 299 299 299 298 299 298 298 297 296 295 294 293 291 289 287 285 283 282 279 276 273 271 268 266 265 264 264 262 262 261 262 264 266 269 273 276 280 282 285 288 290 292 293 295 296 297 297 297 296 295 294 293
318 318 318 319 319 319 319 319 319 318 318 317 316 315 314 313 312 311 310 310 310 309 309 309 308 308 307 307 307 306 305 304 303 302 301 300 300 300 300 299 299 298 296 296 295 294 292 289 285 283 282 281 279 276 273 270 267 265 264 263 262 261 260 261 263 265 268 271 275 278 281 284 287 289 292 295 297 299 300 301 301 300 299 297 295 294
319 319 319 319 320 320 320 320 320 320 320 319 319 318 317 316 315 314 314 313 313 312 311 311 310 309 309 308 308 307 306 305 305 304 304 303 302 302 302 302 301 299 298 296 295 294 292 289 285 281 279 278 277 276 273 271 267 265 263 262 260 259 259 260 263 266 269 273 276 279 282 285 288 291 295 298 300 302 303 303 303 302 301 299 297 296
319 319 320 320 320 321 321 322 322 322 322 322 321 321 320 319 318 317 317 316 315 314 314 313 312 311 310 309 309 308 307 307 307 307 307 306 305 305 304 304 304 302 300 298 296 294 293 289 285 280 276 274 274 274 273 271 269 266 263 261 259 258 258 260 263 266 270 274 277 280 283 286 289 293 297 300 302 304 304 304 304 302 301 300 299 297
319 319 320 320 320 321 321 322 322 323 323 323 323 322 322 321 320 319 318 317 317 316 315 315 314 313 312 311 310 310 309 309 309 309 309 308 308 307 307 307 306 305 303 300 298 296 293 289 284 279 274 271 270 271 271 271 270 268 265 262 260 258 258 260 263 267 270 274 278 281 284 287 290 294 298 301 303 304 305 304 303 301 300 299 298 298
319 319 319 320 320 321 321 321 322 322 322 322 322 322 322 321 321 319 319 318 317 316 316 315 314 314 313 312 312 311 311 310 310 310 310 310 309 309 309 308 308 307 306 304 301 298 294 289 283 277 272 268 267 267 269 270 270 269 267 264 261 259 260 262 264 268 271 275 278 281 284 288 292 296 300 302 304 304 304 303 301 300 299 298 298 298
319 319 319 319 320 320 320 320 320 321 321 320 320 320 320 320 319 318 318 317 316 316 315 315 315 314 313 313 312 312 312 312 312 311 311 311 311 310 310 309 309 308 307 306 304 301 297 291 283 275 268 265 264 264 266 267 268 269 267 265 263 262 263 264 267 270 274 277 280 283 286 289 293 298 301 303 304 304 303 301 300 298 298 297 298 297
319 319 319 319 319 319 319 319 319 319 318 318 318 318 318 318 317 317 317 316 316 315 315 315 314 314 313 312 312 312 312 312 313 312 312 312 312 312 311 311 310 309 308 307 305 303 300 294 285 275 266 261 260 262 263 264 266 266 266 265 265 265 266 268 271 274 277 280 283 286 289 292 296 300 302 304 304 303 301 300 298 297 296 296 296 295
320 320 320 319 319 319 319 318 318 317 317 316 316 316 316 316 316 316 315 315 315 315 315 314 314 314 313 312 312 312 312 313 313 313 313 313 313 312 312 311 311 310 309 308 307 305 302 296 287 276 265 259 257 257 260 261 263 264 264 264 265 267 270 272 275 278 281 284 287 289 292 295 298 301 303 304 303 302 300 297 295 294 294 293 293 292
321 321 320 320 320 319 318 318 317 316 316 315 315 314 314 314 314 314 314 314 314 314 314 314 313 313 313 312 312 312 312 312 313 313 313 313 313 313 313 312 312 311 310 309 307 306 303 297 289 279 268 260 256 255 256 258 260 261 261 261 263 266 270 273 276 280 283 286 289 291 294 297 300 302 303 303 302 300 298 295 293 292 291 290 290 290
323 322 321 321 320 319 318 317 317 316 315 314 314 313 313 313 313 313 313 313 313 313 313 313 312 312 312 312 312 312 312 312 312 313 313 313 313 313 313 313 312 311 310 309 308 306 303 298 291 281 271 263 257 255 254 254 256 257 257 257 259 262 266 270 274 278 282 286 289 292 294 297 300 302 302 302 301 299 296 294 292 291 290 290 290 290
325 324 323 322 321 320 319 318 317 315 315 314 313 313 313 313 312 312 312 312 312 312 312 312 311 311 311 311 311 311 311 312 312 312 313 313 313 313 313 313 313 312 311 310 308 306 303 298 291 283 274 266 260 256 252 250 251 252 253 254 255 257 261 266 271 276 281 285 289 292 295 298 301 302 302 301 300 299 297 295 293 292 292 292 291 291
327 326 324 323 322 321 320 318 317 316 315 314 313 313 313 312 312 312 312 312 312 311 311 311 311 310 310 310 310 310 311 311 312 312 313 313 313 314 314 313 313 312 311 310 309 307 303 297 290 284 277 270 263 257 251 247 245 246 249 251 253 256 259 264 270 275 280 284 288 292 296 299 301 302 302 302 300 299 298 296 295 294 294 294 293 293
329 328 326 325 324 322 321 319 318 317 316 315 314 313 313 313 312 312 312 312 311 311 310 310 310 309 309 309 309 310 310 311 311 312 312 313 313 314 314 314 313 313 312 311 311 309 305 298 290 283 278 272 266 259 251 244 240 241 244 248 253 257 262 267 271 276 280 285 290 294 298 300 302 303 302 302 302 300 299 298 297 296 295 295 294 294
332 330 329 327 326 324 323 321 320 319 317 316 315 314 313 313 312 312 312 312 311 311 310 310 310 309 309 309 309 310 310 311 311 311 312 312 313 313 314 314 313 313 312 312 312 310 307 301 294 286 279 273 267 259 251 243 238 237 241 247 253 259 264 270 275 279 284 289 293 297 300 302 303 303 303 303 303 302 301 299 298 297 296 296 297 296
335 333 332 330 328 327 325 324 322 321 319 317 316 315 314 313 313 312 312 312 311 311 311 311 310 311 311 311 311 311 311 311 311 311 311 311 312 312 312 313 313 313 312 312 312 311 309 306 299 292 282 273 264 256 249 243 239 238 241 247 253 260 266 272 278 284 289 293 297 300 302 303 303 303 304 305 305 304 302 301 300 299 299 299 299 299
337 336 334 333 331 330 328 326 324 322 320 319 317 316 315 314 313 313 312 312 312 312 312 312 312 312 312 313 313 313 313 313 312 312 311 311 311 311 311 311 311 311 311 312 312 312 311 310 307 300 289 276 261 250 245 243 241 240 243 249 255 261 267 274 281 287 292 297 300 302 303 304 304 305 306 307 307 307 305 304 303 303 303 304 303 303
339 338 337 335 334 332 330 328 326 324 322 320 318 317 316 315 315 315 315 314 314 314 314 314 314 314 314 314 314 314 314 314 314 313 313 313 312 311 311 310 310 309 309 309 310 311 313 314 313 308 297 283 265 248 241 239 240 243 247 252 257 263 270 276 284 290 295 300 303 305 305 306 307 308 310 311 311 310 309 308 308 308 308 308 308 307
340 339 338 337 335 334 332 330 328 327 325 323 321 320 319 318 318 318 318 317 317 317 317 317 317 317 316 316 316 315 315 314 314 314 314 314 313 313 311 310 309 308 307 307 308 309 311 312 313 311 304 291 272 252 239 235 237 242 248 254 261 268 275 282 289 295 300 303 306 307 307 308 310 312 314 315 315 315 314 313 313 313 313 313 313 311
341 340 339 337 336 335 334 332 331 329 328 327 325 324 323 322 322 322 321 321 321 321 321 320 320 319 318 318 317 316 315 315 315 315 316 315 315 314 313 312 310 309 308 306 305 306 307 308 310 310 309 302 285 263 247 236 234 239 248 258 268 276 283 289 296 301 305 307 308 308 308 309 312 314 316 318 319 319 319 318 318 317 316 316 315 313